This is the latest recevied weather packets stored in our database for station/object W6MAF. If no packets are shown the sender has not sent any weather packets the latest 10 day(s).
| Time | Temp. | Humidity | Pressure | Rain* | Wind** | Luminosity | Snow |
|---|---|---|---|---|---|---|---|
| 1777077677 | 16.11° C | 27% | - | 0 mm | 6.26 m/s, 166° | - | - |
| 1777077379 | 16.11° C | 28% | - | 0 mm | 4.47 m/s, 163° | - | - |
| 1777077078 | 16.67° C | 27% | - | 0 mm | 4.47 m/s, 156° | - | - |
| 1777076483 | 16.67° C | 28% | - | 0 mm | 5.36 m/s, 184° | - | - |
| 1777075887 | 16.67° C | 29% | - | 0 mm | 5.36 m/s, 179° | - | - |
| 1777075589 | 16.67° C | 29% | - | 0 mm | 6.71 m/s, 180° | - | - |
| 1777075289 | 17.22° C | 28% | - | 0 mm | 5.81 m/s, 167° | - | - |
| 1777074991 | 17.22° C | 28% | - | 0 mm | 5.36 m/s, 194° | - | - |
| 1777074693 | 17.22° C | 28% | - | 0 mm | 5.36 m/s, 194° | - | - |
| 1777074396 | 17.78° C | 29% | - | 0 mm | 6.71 m/s, 191° | - | - |
| 1777074098 | 17.78° C | 28% | - | 0 mm | 6.71 m/s, 184° | - | - |
| 1777073800 | 17.78° C | 27% | - | 0 mm | 7.15 m/s, 193° | - | - |
| 1777073499 | 17.78° C | 26% | - | 0 mm | 6.26 m/s, 208° | - | - |
| 1777073201 | 18.33° C | 25% | - | 0 mm | 8.05 m/s, 195° | - | - |
| 1777072904 | 18.33° C | 25% | - | 0 mm | 4.02 m/s, 188° | - | - |
| 1777072606 | 18.33° C | 25% | - | 0 mm | 5.81 m/s, 211° | - | - |
| 1777072308 | 18.33° C | 24% | - | 0 mm | 5.81 m/s, 187° | - | - |
| 1777072011 | 18.33° C | 24% | - | 0 mm | 6.26 m/s, 205° | - | - |
| 1777071710 | 18.33° C | 24% | - | 0 mm | 4.92 m/s, 194° | - | - |
| 1777071412 | 18.89° C | 23% | - | 0 mm | 5.36 m/s, 177° | - | - |
| 1777071114 | 18.33° C | 23% | - | 0 mm | 6.26 m/s, 194° | - | - |
| 1777070817 | 18.33° C | 24% | - | 0 mm | 4.92 m/s, 201° | - | - |
| 1777070519 | 18.33° C | 24% | - | 0 mm | 5.36 m/s, 184° | - | - |
| 1777070221 | 18.33° C | 23% | - | 0 mm | 6.71 m/s, 190° | - | - |
| 1777069623 | 19.44° C | 20% | - | 0 mm | 5.81 m/s, 186° | - | - |
* Rain latest hour (hover to see other rain measurements)
** Current wind speed in m/s (hover to see current wind gust speed)